Walterboro, SC

5:19 AM EDT on June 28, 2017 (GMT -0400)
Lowcountry Regional

Weather History for KRBW - February, 2013

Change the Weather History Date:

Saturday, February 23, 2013

  Actual Average Record
Temperature  
Mean Temperature 48 °F -  
Max Temperature 55 °F 64 °F 86 °F (2012)
Min Temperature 42 °F 41 °F 37 °F (2014)
Degree Days  
Heating Degree Days 16    
Moisture  
Dew Point 46 °F    
Average Humidity 100    
Maximum Humidity 100    
Minimum Humidity 100    
Precipitation  
Precipitation 0.00 in - - ()
Sea Level Pressure  
Sea Level Pressure 29.94 in    
Wind  
Wind Speed 3 mph (North)    
Max Wind Speed 17 mph    
Max Gust Speed 22 mph    
Visibility 7 miles    
Events Fog , Rain    
Averages and records for this station are not official NWS values.
T = Trace of Precipitation, MM = Missing Value Source: NWS Daily Summary

Daily Weather History Graph

Daily Weather History Graph

Search for Another Location

Airport or City:

Trip Planner

Search our weather history database for the weather conditions in past years. The results will help you decide how hot, cold, wet, or windy it might be!

Date:

Astronomy

Feb. 23, 2013 Rise Set
Actual Time 6:57 AM EST 6:15 PM EST
Civil Twilight 6:32 AM EST 6:39 PM EST
Nautical Twilight 6:03 AM EST 7:08 PM EST
Astronomical Twilight 5:34 AM EST 7:37 PM EST
Moon 4:27 PM EST (2/23) 5:14 AM EST (2/23)
Length of Visible Light 12h 07m
Length of Day
11h 17m
Waxing Gibbous, 95% of the Moon is Illuminated
Feb 23
Waxing Gibbous
Feb 25
Full
Mar 4
Last Quarter
Mar 11
New
Mar 19
First Quarter

Hourly Weather History & Observations

Time (EST) Temp. Windchill Dew Point Humidity Pressure Visibility Wind Dir Wind Speed Gust Speed Precip Events Conditions
12:35 AM 42.8 °F 40.1 °F 42.8 °F 100% 30.08 in 5.0 mi NNW 4.6 mph - N/A Rain Light Rain
12:55 AM 42.8 °F 38.6 °F 42.8 °F 100% 30.08 in 5.0 mi NNW 6.9 mph - N/A Rain Rain
1:15 AM 42.8 °F 41.1 °F 42.8 °F 100% 30.07 in 5.0 mi North 3.5 mph - N/A Rain Light Rain
1:35 AM 42.8 °F 41.1 °F 42.8 °F 100% 30.06 in 7.0 mi North 3.5 mph - N/A Rain Light Rain
1:55 AM 42.8 °F - 42.8 °F 100% 30.05 in 7.0 mi Calm Calm - N/A Rain Light Rain
2:15 AM 42.8 °F - 42.8 °F 100% 30.02 in 7.0 mi Calm Calm - N/A Rain Rain
2:35 AM 42.8 °F - 42.8 °F 100% 30.02 in 7.0 mi Calm Calm - N/A Rain Light Rain
2:55 AM 42.8 °F 40.1 °F 42.8 °F 100% 30.00 in 7.0 mi NE 4.6 mph - N/A Rain Rain
3:15 AM 42.8 °F - 42.8 °F 100% 29.99 in 10.0 mi Calm Calm - N/A Rain Light Rain
3:35 AM 42.8 °F 40.1 °F 42.8 °F 100% 29.97 in 10.0 mi NNE 4.6 mph - N/A Rain Rain
3:55 AM 42.8 °F 40.1 °F 42.8 °F 100% 29.97 in 10.0 mi North 4.6 mph - N/A Rain Light Rain
4:15 AM 42.8 °F 40.1 °F 42.8 °F 100% 29.98 in 10.0 mi North 4.6 mph - N/A Rain Light Rain
4:35 AM 42.8 °F 41.1 °F 42.8 °F 100% 29.97 in 7.0 mi NNE 3.5 mph - N/A Rain Rain
4:55 AM 42.8 °F 41.1 °F 42.8 °F 100% 29.97 in 7.0 mi ENE 3.5 mph - N/A Rain Rain
5:15 AM 42.8 °F 41.1 °F 42.8 °F 100% 29.97 in 7.0 mi NE 3.5 mph - N/A Rain Rain
5:55 AM 42.8 °F - 42.8 °F 100% 29.97 in 4.0 mi Calm Calm - N/A Rain Heavy Rain
6:15 AM 42.8 °F 38.0 °F 42.8 °F 100% 29.94 in 7.0 mi East 8.1 mph - N/A Rain Light Rain
6:55 AM 42.8 °F 41.1 °F 42.8 °F 100% 29.94 in 7.0 mi ENE 3.5 mph - N/A Rain Heavy Rain
7:15 AM 42.8 °F 40.1 °F 42.8 °F 100% 29.94 in 10.0 mi ENE 4.6 mph - N/A   Light Drizzle
7:35 AM 42.8 °F - 42.8 °F 100% 29.96 in 10.0 mi Calm Calm - N/A Rain Rain
7:55 AM 42.8 °F 41.1 °F 42.8 °F 100% 29.96 in 7.0 mi WSW 3.5 mph - N/A Rain Rain
8:15 AM 42.8 °F 40.1 °F 42.8 °F 100% 29.98 in 5.0 mi NNW 4.6 mph - N/A Rain Heavy Rain
8:35 AM 42.8 °F 38.6 °F 42.8 °F 100% 30.00 in 1.8 mi NNW 6.9 mph - N/A Rain Heavy Rain
9:15 AM 42.8 °F 41.1 °F 42.8 °F 100% 29.98 in 10.0 mi North 3.5 mph - N/A Rain Light Rain
9:35 AM 42.8 °F - 42.8 °F 100% 29.98 in 10.0 mi Calm Calm - N/A Rain Rain
9:55 AM 42.8 °F - 42.8 °F 100% 29.97 in 10.0 mi Calm Calm - N/A   Light Drizzle
10:15 AM 44.6 °F - 44.6 °F 100% 29.97 in 10.0 mi Calm Calm - N/A Rain Rain
10:35 AM 44.6 °F - 44.6 °F 100% 29.97 in 10.0 mi Calm Calm - N/A Rain Rain
10:55 AM 44.6 °F - 44.6 °F 100% 29.96 in 10.0 mi Calm Calm - N/A Rain Rain
11:15 AM 44.6 °F - 44.6 °F 100% 29.98 in 7.0 mi Calm Calm - N/A Rain Rain
11:35 AM 44.6 °F 43.1 °F 44.6 °F 100% 29.96 in 10.0 mi ESE 3.5 mph - N/A Rain Light Rain
11:55 AM 44.6 °F - 44.6 °F 100% 29.96 in 10.0 mi Calm Calm - N/A Rain Rain
12:15 PM 44.6 °F - 44.6 °F 100% 29.96 in 7.0 mi Calm Calm - N/A Rain Rain
12:55 PM 46.4 °F - 46.4 °F 100% 29.94 in 10.0 mi Calm Calm - N/A Rain Light Rain
1:15 PM 46.4 °F - 46.4 °F 100% 29.93 in 10.0 mi Calm Calm - N/A Rain Light Rain
1:35 PM 50.0 °F - 50.0 °F 100% 29.90 in 10.0 mi SSE 5.8 mph - N/A Rain Light Rain
1:55 PM 51.8 °F - 51.8 °F 100% 29.89 in 10.0 mi SSW 10.4 mph - N/A Rain Light Rain
2:15 PM 53.6 °F - 53.6 °F 100% 29.88 in 10.0 mi WSW 5.8 mph - N/A Rain Light Rain
2:35 PM 55.4 °F - 55.4 °F 100% 29.89 in 10.0 mi WNW 17.3 mph 21.9 mph N/A Rain Light Rain
2:55 PM 53.6 °F - 53.6 °F 100% 29.87 in 10.0 mi Calm Calm - N/A   Overcast
3:15 PM 55.4 °F - 55.4 °F 100% 29.85 in 10.0 mi North 5.8 mph - N/A   Overcast
3:55 PM 50.0 °F - 50.0 °F 100% 29.90 in 0.5 mi NNW 8.1 mph - N/A   Light Drizzle
4:15 PM 50.0 °F - 50.0 °F 100% 29.89 in 0.2 mi NNW 5.8 mph - N/A Fog Fog
4:55 PM 48.2 °F - 48.2 °F 100% 29.88 in 0.2 mi Calm Calm - N/A Fog Fog
5:15 PM 48.2 °F - 48.2 °F 100% 29.87 in 0.5 mi Calm Calm - N/A Fog Fog
5:35 PM 48.2 °F - 48.2 °F 100% 29.88 in 0.5 mi Calm Calm - N/A Fog Fog
5:55 PM 48.2 °F - 48.2 °F 100% 29.87 in 1.0 mi Calm Calm - N/A   Overcast
6:15 PM 48.2 °F - 48.2 °F 100% 29.90 in 1.8 mi NW 4.6 mph - N/A   Overcast
6:35 PM 46.4 °F 43.5 °F 46.4 °F 100% 29.90 in 1.5 mi NNW 5.8 mph - N/A   Overcast
6:55 PM 46.4 °F 45.2 °F 46.4 °F 100% 29.90 in 1.8 mi NNW 3.5 mph - N/A   Overcast
7:15 PM 46.4 °F 45.2 °F 46.4 °F 100% 29.91 in 4.0 mi NW 3.5 mph - N/A   Overcast
7:35 PM 46.4 °F - 46.4 °F 100% 29.91 in 7.0 mi Calm Calm - N/A   Overcast
7:55 PM 46.4 °F 45.2 °F 46.4 °F 100% 29.93 in 7.0 mi West 3.5 mph - N/A   Overcast
8:15 PM 46.4 °F 45.2 °F 46.4 °F 100% 29.93 in 10.0 mi SW 3.5 mph - N/A Rain Rain
8:35 PM 48.2 °F - 48.2 °F 100% 29.93 in 10.0 mi South 5.8 mph - N/A Rain Rain
8:55 PM 48.2 °F - 48.2 °F 100% 29.92 in 10.0 mi SSE 5.8 mph - N/A Rain Rain
9:15 PM 48.2 °F - 48.2 °F 100% 29.93 in 10.0 mi Calm Calm - N/A Rain Light Rain
9:35 PM 48.2 °F - 48.2 °F 100% 29.93 in 10.0 mi Calm Calm - N/A Rain Light Rain
9:55 PM 50.0 °F - 50.0 °F 100% 29.94 in 10.0 mi NNW 5.8 mph - N/A Rain Light Rain
10:15 PM 48.2 °F - 48.2 °F 100% 29.85 in 7.0 mi East 10.4 mph - N/A Rain Rain
10:35 PM 50.0 °F - 50.0 °F 100% 29.84 in 10.0 mi North 3.5 mph - N/A Rain Light Rain
10:55 PM 50.0 °F - 50.0 °F 100% 29.82 in 10.0 mi East 3.5 mph - N/A   Overcast
11:15 PM 50.0 °F - 50.0 °F 100% 29.83 in 10.0 mi Calm Calm - N/A   Overcast
11:35 PM 50.0 °F - 50.0 °F 100% 29.84 in 7.0 mi NW 3.5 mph - N/A   Overcast
11:55 PM 50.0 °F - 50.0 °F 100% 29.83 in 0.5 mi NW 8.1 mph - N/A Fog Fog